Weather History for KUIN - October, 2012

Change the Weather History Date:

Wednesday, October 3, 2012

  Actual Average Record
Temperature  
Mean Temperature 63 °F 59 °F  
Max Temperature 70 °F 70 °F 93 °F (2006)
Min Temperature 55 °F 48 °F 31 °F (1974)
Degree Days  
Heating Degree Days 2 7  
Month to date heating degree days 13 21  
Since 1 July heating degree days 98 108  
Cooling Degree Days 0 1  
Month to date cooling degree days 0 4  
Year to date cooling degree days 1552 1080  
Growing Degree Days 12 (Base 50)    
Moisture  
Dew Point 51 °F    
Average Humidity 65    
Maximum Humidity 78    
Minimum Humidity 51    
Precipitation  
Precipitation T in 0.10 in 1.82 in (1971)
Month to date precipitation T 0.31  
Year to date precipitation 18.56 29.36  
Sea Level Pressure  
Sea Level Pressure 29.95 in    
Wind  
Wind Speed 5 mph (South)    
Max Wind Speed 13 mph    
Max Gust Speed 17 mph    
Visibility 10 miles    
Events      
T = Trace of Precipitation, MM = Missing Value Source: NWS Daily Summary

Daily Weather History Graph

Daily Weather History Graph

Search for Another Location

Airport or City:

Trip Planner

Search our weather history database for the weather conditions in past years. The results will help you decide how hot, cold, wet, or windy it might be!

Date:

Astronomy

Oct. 03, 2012 Rise Set
Actual Time 7:03 AM CDT 6:43 PM CDT
Civil Twilight 6:36 AM CDT 7:10 PM CDT
Nautical Twilight 6:05 AM CDT 7:41 PM CDT
Astronomical Twilight 5:33 AM CDT 8:12 PM CDT
Moon 8:35 PM CDT (10/3) 10:26 AM CDT (10/3)
Length of Visible Light 12h 33m
Length of Day
11h 39m
Waning Gibbous, 88% of the Moon is Illuminated
Oct 3
Waning Gibbous
Oct 8
Last Quarter
Oct 15
New
Oct 21
First Quarter
Oct 29
Full

Hourly Weather History & Observations

Time (CDT) Temp. Dew Point Humidity Pressure Visibility Wind Dir Wind Speed Gust Speed Precip Events Conditions
12:54 AM 59.0 °F 48.0 °F 67% 29.88 in 10.0 mi SSW 4.6 mph - N/A   Mostly Cloudy
1:54 AM 55.9 °F 48.0 °F 75% 29.89 in 10.0 mi SW 5.8 mph - N/A   Clear
2:54 AM 57.9 °F 50.0 °F 75% 29.89 in 10.0 mi SW 5.8 mph - N/A   Overcast
3:54 AM 57.9 °F 50.0 °F 75% 29.90 in 10.0 mi SW 5.8 mph - N/A   Overcast
4:54 AM 57.9 °F 50.0 °F 75% 29.91 in 10.0 mi SW 4.6 mph - N/A   Overcast
5:54 AM 57.9 °F 48.9 °F 72% 29.92 in 10.0 mi Calm Calm - N/A   Overcast
6:54 AM 57.2 °F 50.0 °F 77% 29.94 in 10.0 mi Calm Calm - N/A   Mostly Cloudy
7:54 AM 57.9 °F 50.0 °F 75% 29.95 in 10.0 mi Calm Calm - N/A   Clear
8:54 AM 60.1 °F 50.0 °F 69% 29.95 in 10.0 mi Calm Calm - N/A   Overcast
9:54 AM 62.1 °F 50.0 °F 65% 29.96 in 10.0 mi Calm Calm - N/A   Overcast
10:54 AM 64.9 °F 48.9 °F 56% 29.97 in 10.0 mi South 3.5 mph - N/A   Mostly Cloudy
11:49 AM 66.2 °F 48.2 °F 52% 29.98 in 2.0 mi Calm Calm - N/A   Haze
11:54 AM 68.0 °F 50.0 °F 52% 29.97 in 9.0 mi Calm Calm - N/A   Mostly Cloudy
12:54 PM 68.0 °F 50.0 °F 52% 29.96 in 10.0 mi South 4.6 mph - N/A   Scattered Clouds
1:54 PM 69.1 °F 50.0 °F 51% 29.95 in 10.0 mi SSE 6.9 mph - N/A   Overcast
2:54 PM 68.0 °F 52.0 °F 56% 29.95 in 10.0 mi SSE 8.1 mph - N/A   Overcast
3:54 PM 66.9 °F 55.0 °F 66% 29.94 in 10.0 mi SE 9.2 mph - N/A   Overcast
4:54 PM 66.9 °F 55.9 °F 68% 29.94 in 10.0 mi SSE 8.1 mph - 0.00 in   Overcast
5:54 PM 68.0 °F 55.0 °F 63% 29.95 in 10.0 mi South 10.4 mph - N/A   Scattered Clouds
6:54 PM 64.0 °F 52.0 °F 65% 29.96 in 10.0 mi South 8.1 mph - N/A   Clear
7:54 PM 62.6 °F 50.0 °F 63% 29.98 in 10.0 mi South 8.1 mph - N/A   Clear
8:54 PM 62.1 °F 48.9 °F 62% 30.00 in 10.0 mi South 8.1 mph - N/A   Clear
9:54 PM 62.1 °F 51.1 °F 67% 30.01 in 10.0 mi South 8.1 mph - N/A   Clear
10:54 PM 61.0 °F 52.0 °F 72% 30.01 in 10.0 mi South 6.9 mph - N/A   Clear
11:54 PM 61.0 °F 53.1 °F 75% 30.02 in 10.0 mi South 5.8 mph - N/A   Clear